Weather History for Istres, France

Change the Weather History Date:

Tuesday, October 8, 2013

  Actual Average (LFML) Record (LFML)
Temperature  
Mean Temperature 64 °F -  
Max Temperature 75 °F 70 °F 81 °F (2012)
Min Temperature 53 °F 55 °F 48 °F (1999)
Degree Days  
Heating Degree Days 1    
Growing Degree Days 14 (Base 50)    
Moisture  
Dew Point 54 °F    
Average Humidity 74    
Maximum Humidity 94    
Minimum Humidity 47    
Precipitation  
Precipitation 0.00 in - - ()
Sea Level Pressure  
Sea Level Pressure 30.14 in    
Wind  
Wind Speed 4 mph ()    
Max Wind Speed 12 mph    
Max Gust Speed -    
Visibility 6.2 miles    
Events      
Averages and records for this station are not official NWS values.
T = Trace of Precipitation, MM = Missing Value Source: Averaged Metar Reports

Daily Weather History Graph

Daily Weather History Graph

Search for Another Location

Airport:

Trip Planner

Search our weather history database for the weather conditions in past years. The results will help you decide how hot, cold, wet, or windy it might be!

Date:

Astronomy

Oct. 08, 2013 Rise Set
Actual Time 7:45 AM CEST 7:08 PM CEST
Civil Twilight 7:17 AM CEST 7:37 PM CEST
Nautical Twilight 6:44 AM CEST 8:10 PM CEST
Astronomical Twilight 6:10 AM CEST 8:43 PM CEST
Moon 11:30 AM CEST (10/8) 9:24 PM CEST (10/8)
Length of Visible Light 12h 20m
Length of Day
11h 22m
Waxing Crescent, 14% of the Moon is Illuminated
Oct 8
Waxing Crescent
Oct 12
First Quarter
Oct 19
Full
Oct 27
Last Quarter
Nov 3
New

Hourly Weather History & Observations

Time (CEST) Temp. Dew Point Humidity Pressure Visibility Wind Dir Wind Speed Gust Speed Precip Events Conditions
12:00 AM 57.2 °F 51.8 °F 82% 30.15 in 6.2 mi NW 5.8 mph - N/A   Unknown
12:30 AM 57.2 °F 51.8 °F 82% 30.15 in 6.2 mi NNW 4.6 mph - N/A   Unknown
1:00 AM 59.0 °F 51.8 °F 77% 30.15 in 6.2 mi Variable 3.5 mph - N/A   Unknown
1:30 AM 57.2 °F 51.8 °F 82% 30.15 in 6.2 mi North 5.8 mph - N/A   Unknown
2:00 AM 59.0 °F 53.6 °F 82% 30.15 in 6.2 mi NNW 3.5 mph - N/A   Unknown
2:30 AM 55.4 °F 51.8 °F 88% 30.15 in 6.2 mi Variable 1.2 mph - N/A   Unknown
3:00 AM 55.4 °F 51.8 °F 88% 30.15 in 6.2 mi Variable 1.2 mph - N/A   Unknown
3:30 AM 55.4 °F 51.8 °F 88% 30.15 in 6.2 mi West 2.3 mph - N/A   Unknown
4:00 AM 55.4 °F 51.8 °F 88% 30.15 in 6.2 mi WNW 3.5 mph - N/A   Unknown
4:30 AM 55.4 °F 51.8 °F 88% 30.15 in 6.2 mi Calm Calm - N/A   Unknown
5:00 AM 55.4 °F 53.6 °F 94% 30.12 in 6.2 mi WNW 3.5 mph - N/A   Unknown
5:30 AM 55.4 °F 53.6 °F 94% 30.15 in 6.2 mi WNW 4.6 mph - N/A   Unknown
6:00 AM 55.4 °F 51.8 °F 88% 30.12 in 6.2 mi WNW 3.5 mph - N/A   Unknown
6:30 AM 53.6 °F 51.8 °F 94% 30.12 in 6.2 mi NW 3.5 mph - N/A   Unknown
7:00 AM 53.6 °F 51.8 °F 94% 30.15 in 6.2 mi NNW 3.5 mph - N/A   Unknown
7:30 AM 53.6 °F 50.0 °F 88% 30.12 in 6.2 mi North 3.5 mph - N/A   Unknown
8:00 AM 53.6 °F 50.0 °F 88% 30.12 in 6.2 mi NW 4.6 mph - N/A   Unknown
8:30 AM 53.6 °F 50.0 °F 88% 30.15 in 6.2 mi NNW 4.6 mph - N/A   Unknown
9:00 AM 55.4 °F 51.8 °F 88% 30.15 in 6.2 mi NNW 4.6 mph - N/A   Unknown
9:30 AM 59.0 °F 53.6 °F 82% 30.15 in 6.2 mi NNW 5.8 mph - N/A   Unknown
10:00 AM 60.8 °F 53.6 °F 77% 30.15 in 6.2 mi North 5.8 mph - N/A   Unknown
10:30 AM 62.6 °F 55.4 °F 77% 30.15 in 6.2 mi North 5.8 mph - N/A   Unknown
11:30 AM 66.2 °F 55.4 °F 68% 30.15 in 6.2 mi North 5.8 mph - N/A   Mostly Cloudy
12:00 PM 66.2 °F 55.4 °F 68% 30.15 in 6.2 mi North 5.8 mph - N/A   Partly Cloudy
12:30 PM 69.8 °F 57.2 °F 64% 30.15 in 6.2 mi NNW 6.9 mph - N/A   Unknown
1:00 PM 69.8 °F 57.2 °F 64% 30.15 in 6.2 mi North 6.9 mph - N/A   Unknown
1:30 PM 69.8 °F 55.4 °F 60% 30.12 in 6.2 mi NW 5.8 mph - N/A   Unknown
2:00 PM 71.6 °F 55.4 °F 57% 30.12 in 6.2 mi NW 5.8 mph - N/A   Mostly Cloudy
2:30 PM 73.4 °F 57.2 °F 57% 30.12 in 6.2 mi North 3.5 mph - N/A   Partly Cloudy
3:00 PM 73.4 °F 57.2 °F 57% 30.12 in 6.2 mi NW 4.6 mph - N/A   Scattered Clouds
3:30 PM 71.6 °F 55.4 °F 57% 30.12 in 6.2 mi NW 4.6 mph - N/A   Partly Cloudy
4:00 PM 75.2 °F 53.6 °F 47% 30.12 in 6.2 mi Variable 1.2 mph - N/A   Partly Cloudy
4:30 PM 73.4 °F 55.4 °F 53% 30.12 in 6.2 mi North 8.1 mph - N/A   Partly Cloudy
5:00 PM 73.4 °F 55.4 °F 53% 30.09 in 6.2 mi NNW 8.1 mph - N/A   Partly Cloudy
5:30 PM 73.4 °F 55.4 °F 53% 30.09 in 6.2 mi NW 9.2 mph - N/A   Unknown
6:00 PM 73.4 °F 55.4 °F 53% 30.12 in 6.2 mi NNW 10.4 mph - N/A   Partly Cloudy
6:30 PM 71.6 °F 55.4 °F 57% 30.12 in 6.2 mi North 11.5 mph - N/A   Scattered Clouds
7:00 PM 69.8 °F 55.4 °F 60% 30.12 in 6.2 mi NNW 8.1 mph - N/A   Partly Cloudy
7:30 PM 68.0 °F 55.4 °F 64% 30.12 in 6.2 mi NNW 6.9 mph - N/A   Unknown
8:00 PM 66.2 °F 55.4 °F 68% 30.12 in 6.2 mi NNW 6.9 mph - N/A   Unknown
8:30 PM 66.2 °F 55.4 °F 68% 30.15 in 6.2 mi North 4.6 mph - N/A   Unknown
9:00 PM 64.4 °F 53.6 °F 68% 30.15 in 6.2 mi North 8.1 mph - N/A   Unknown
9:30 PM 62.6 °F 53.6 °F 72% 30.15 in 6.2 mi NNW 6.9 mph - N/A   Unknown
10:00 PM 62.6 °F 53.6 °F 72% 30.15 in 6.2 mi North 5.8 mph - N/A   Unknown
10:30 PM 60.8 °F 53.6 °F 77% 30.15 in 6.2 mi WNW 6.9 mph - N/A   Unknown
11:00 PM 59.0 °F 53.6 °F 82% 30.15 in 6.2 mi NW 5.8 mph - N/A   Unknown
11:30 PM 59.0 °F 53.6 °F 82% 30.15 in 6.2 mi NW 5.8 mph - N/A   Unknown